Location: Treviso
(45.6669°N, 12.2430°E)
Time: 22:46:51
(UTC+02:00)

POLYITAN 1 - Visible Passes

Search period start: 20 April 2019 00:00
Search period end: 30 April 2019 00:00
Orbit: 593 x 611 km, 97.9° (Epoch: 19 April)

Date Brightness Start Highest point End Pass type
(mag) Time Alt. Az. Time Alt. Az. Time Alt. Az.
20 Apr ? 01:07:40 10° NNE 01:08:57 18° NE 01:08:57 18° NE visible
20 Apr ? 02:43:39 10° N 02:45:45 21° NW 02:45:45 21° NW visible
21 Apr ? 01:19:17 10° NNE 01:20:57 22° NE 01:20:57 22° NE visible
21 Apr ? 02:55:43 10° NNW 02:57:44 18° NW 02:57:44 18° NW visible
22 Apr ? 01:30:58 10° NNE 01:32:56 26° NNE 01:32:56 26° NNE visible
22 Apr ? 03:07:56 10° NNW 03:09:44 15° NW 03:09:44 15° NW visible
23 Apr ? 01:42:41 10° NNE 01:44:56 30° NNE 01:44:56 30° NNE visible
23 Apr ? 03:20:23 10° NW 03:21:44 12° NW 03:21:44 12° NW visible
24 Apr ? 01:54:28 10° N 01:56:55 34° N 01:56:55 34° N visible
25 Apr ? 00:32:06 10° ENE 00:32:06 10° ENE 00:32:06 10° ENE visible
25 Apr ? 02:06:17 10° N 02:08:54 35° N 02:08:54 35° N visible
26 Apr ? 00:43:16 10° NE 00:44:05 13° ENE 00:44:05 13° ENE visible
26 Apr ? 02:18:09 10° N 02:20:53 33° NNW 02:20:53 33° NNW visible
27 Apr ? 00:54:39 10° NE 00:56:04 17° NE 00:56:04 17° NE visible
27 Apr ? 02:30:05 10° N 02:32:52 29° NW 02:32:52 29° NW visible
28 Apr ? 01:06:09 10° NNE 01:08:03 22° NE 01:08:03 22° NE visible
28 Apr ? 02:42:04 10° N 02:44:51 25° NW 02:44:51 25° NW visible
29 Apr ? 01:17:45 10° NNE 01:20:02 27° NE 01:20:02 27° NE visible
29 Apr ? 02:54:07 10° NNW 02:56:50 20° NW 02:56:50 20° NW visible
